Regional Weather Roundup
Issued by NWS

Home | Current Version | Previous Version | Graphics & Text | Print | Product List | Glossary On
Versions: 1 2 3 4 5 6 7 8 9 10 11 12 13 14 15 16 17 18 19 20 21 22 23 24 25 26 27 28 29 30 31 32 33 34 35 36 37 38 39 40 41 42 43 44 45 46 47 48 49 50
000
ASUS43 KDMX 010006
RWRIA

WEATHER ROUNDUP FOR IOWA
NATIONAL WEATHER SERVICE DES MOINES IA
700 PM CDT SUN APR 30 2017

NOTE: "FAIR" INDICATES FEW OR NO CLOUDS BELOW 12,000 FEET WITH NO
SIGNIFICANT WEATHER AND/OR OBSTRUCTIONS TO VISIBILITY.

* - THESE STATIONS ARE NOT NWS STATIONS...THUS NOT UNDER NWS
QUALITY CONTROL.  THEY ALSO DO NOT REPORT WEATHER SUCH
AS PRECIPITATION OR FOG.

IAZ001>003-012>014-020>022-031>034-043>046-010100-
   NORTHWEST IOWA

CITY           SKY/WX    TMP DP  RH WIND       PRES   REMARKS
CARROLL *      RAIN      43  43 100 N15       29.58F
CHEROKEE *     RAIN      40  40 100 CALM      29.66S
DENISON *      CLOUDY    41  41 100 NE22G29   29.55F
ORANGE CITY *  RAIN      37  37 100 CALM      29.68F
SHELDON *      HVY RAIN  39  37  93 VRB7      29.67R VSB 1/2 WCI  34
SIOUX CITY     CLOUDY   N/A N/A N/A N6        29.65F FOG
SPENCER        HVY RAIN  41  39  93 NE26G35   29.57F FOG
6HR MIN TEMP:  39; 6HR MAX TEMP:  41; 6HR PCP:  0.21;

STORM LAKE *   LGT RAIN  39  39 100 E13       29.64R WCI  32
$$

IAZ055>058-069>071-079>083-090>094-010100-
   SOUTHWEST IOWA

CITY           SKY/WX    TMP DP  RH WIND       PRES   REMARKS
ATLANTIC *     PTSUNNY   43  43 100 NE15G22   29.52R FOG
AUDUBON *      PTSUNNY   43  39  87 NE15G22   29.52F
CLARINDA *     CLOUDY    48  46  93 NE9       29.50S
COUNCIL BLFS * PTSUNNY   43  43 100 N16       29.52F
CRESTON *      FOG       46  46 100 NE15      29.49R VSB 1
HARLAN  *      CLOUDY    43  43 100 NE17      29.56F
LAMONI         CLOUDY    51  50  96 NE8       29.47R
6HR MIN TEMP:  45; 6HR MAX TEMP:  51; 6HR PCP:  0.39;

RED OAK *      CLOUDY    45  45 100 NE14      29.50F FOG
SHENANDOAH *   CLOUDY    46  45  93 NE16      29.48F FOG
$$

IAZ047>049-059>061-072>074-084-010100-
   CENTRAL IOWA

CITY           SKY/WX    TMP DP  RH WIND       PRES   REMARKS
AMES           LGT RAIN  44  44 100 W8        29.59R FOG
6HR MIN TEMP:  42; 6HR MAX TEMP:  44; 6HR PCP:  0.52;

ANKENY *       RAIN      45  45 100 N6        29.57F
BOONE *        HVY RAIN  43  43 100 CALM      29.59R VSB 1
CHARITON *     PTSUNNY   46  46 100 N9        29.46F
DES MOINES     RAIN      46  44  93 NE17      29.50F FOG
6HR MIN TEMP:  44; 6HR MAX TEMP:  46; 6HR PCP:  0.82;

GRINNELL*      LGT RAIN  46  44  95 E18       29.48F
KNOXVILLE *    LGT RAIN  46  46 100 N10       29.48F
MARSHALLTOWN   LGT RAIN  44  43  96 E21G31    29.49F FOG
6HR MIN TEMP:  42; 6HR MAX TEMP:  44; 6HR PCP:  0.28;

NEWTON *       CLOUDY    46  45  93 SW16G23   29.56R FOG
PELLA *        HVY RAIN  47  46  98 NW6       29.54R
PERRY *        RAIN      44  43  97 N8        29.56F
$$

IAZ004>006-015-016-023>025-035-036-010100-
   NORTH CENTRAL IOWA

CITY           SKY/WX    TMP DP  RH WIND       PRES   REMARKS
ALGONA *       LGT RAIN  41  41 100 NE24G35   29.55F
CLARION *      CLOUDY    41  41 100 NE29G37   29.52F FOG
ESTHERVILLE    LGT RAIN  40  40 100 NE22G31   29.59F FOG     WCI  30
6HR MIN TEMP:  38; 6HR MAX TEMP:  40; 6HR PCP:  0.07;

FORT DODGE *   CLOUDY    41  37  87 NE15G29   29.55R
MASON CITY     LGT RAIN  41  39  93 NE23G32   29.61F FOG
6HR MIN TEMP:  41; 6HR MAX TEMP:  43; 6HR PCP:  0.01;

FOREST CITY *  DRIZZLE   43  36  75 E20G28    29.60F
WEBSTER CITY * LGT RAIN  43  41  93 NE23G35   29.50S VSB 1
IOWA FALLS *   LGT RAIN  43  41  94 NE22G28   29.52F
$$

IAZ007>011-017>019-026>030-037>042-050>054-066-010100-
   NORTHEAST IOWA

CITY           SKY/WX    TMP DP  RH WIND       PRES   REMARKS
CEDAR RAPIDS   LGT RAIN  45  50 100 E21G36    29.49F FOG
6HR MIN TEMP:  44; 6HR MAX TEMP:  46; 6HR PCP:  0.25;

CHARLES CITY * CLOUDY    43  41  93 E25G35    29.60F
CLINTON *      LGT RAIN  46  45  96 E25G33    29.57F FOG
DECORAH *      CLOUDY    41  39  93 E21       29.64S
DUBUQUE        CLOUDY    43  42  97 NE25G39   29.61F FOG
6HR MIN TEMP:  43; 6HR MAX TEMP:  45; 6HR PCP:  0.02;

MONTICELLO *   CLOUDY    45  45 100 E24G35    29.55F FOG
OELWEIN *      LGT RAIN  43  43 100 E28G39    29.54F
WATERLOO       HVY RAIN  43  40  89 E23G32    29.56F FOG
6HR MIN TEMP:  43; 6HR MAX TEMP:  45; 6HR PCP:  0.13;

$$

IAZ064-065-067-068-078-010100-
   EAST CENTRAL IOWA

CITY           SKY/WX    TMP DP  RH WIND       PRES   REMARKS
DAVENPORT      LGT RAIN  47  46  97 E22G32    29.56F FOG
6HR MIN TEMP:  46; 6HR MAX TEMP:  47; 6HR PCP:  0.02;

IOWA CITY      LGT RAIN  48  46  93 E12G21    29.52F FOG
6HR MIN TEMP:  46; 6HR MAX TEMP:  48; 6HR PCP:  0.16;

MT. PLEASANT * CLOUDY    49  49 100 E21G30    29.45F FOG
MUSCATINE *    CLOUDY    50  48  93 E12       29.52F FOG
QUAD CITIES    LGT RAIN  49  46  90 E17       29.54F FOG
6HR MIN TEMP:  47; 6HR MAX TEMP:  49; 6HR PCP:  0.03;

$$

IAZ062-063-075>077-085>089-095>099-010100-
   SOUTHEAST IOWA

CITY           SKY/WX    TMP DP  RH WIND       PRES   REMARKS
BURLINGTON     CLOUDY    51  51 100 E15G29    29.45F
6HR MIN TEMP:  47; 6HR MAX TEMP:  51; 6HR PCP:  0.02;

FAIRFIELD *    CLOUDY    50  48  93 SW24G37   29.51R
FORT MADISON * CLOUDY    52  52 100 E14G21    29.43F FOG
KEOKUK *       LGT RAIN  54  54 100 SW3G17    29.44R
OSKALOOSA *    HVY RAIN  48  47  97 SW18G25   29.54R
CENTERVILLE *  PTSUNNY   48  48 100 CALM      29.44F
OTTUMWA        RAIN      50  49  96 W7        29.52R FOG
6HR MIN TEMP:  45; 6HR MAX TEMP:  50; 6HR PCP:  0.35;

WASHINGTON *   CLOUDY    48  48 100 E22G31    29.47F FOG
$$

ABBREVIATIONS USED IN REMARKS
   TC - TEMPERATURES IN CELSIUS
  WCI - WIND CHILL INDEX
   HX - HEAT INDEX
  VSB - VISIBILITY
$$




USA.gov is the U.S. government's official web portal to all federal, state and local government web resources and services.